Tracking 28794 objects as of 19-Apr-2024
HD Live streaming from Space Station
objects crossing your sky now

COSMOS 375 DEB

Track COSMOS 375 DEB now!
10-day predictions


NORAD ID: 4724
Int'l Code: 1970-091V
Perigee: 492.5 km
Apogee: 1,241.0 km
Inclination: 62.8 °
Period: 102.1 minutes
Semi major axis: 7237 km
RCS: 0.2791 m2 (medium)
Launch date: October 30, 1970
Source: Commonwealth of Independent States (former USSR) (CIS)
Launch site: TYURATAM MISSILE AND SPACE COMPLEX (TTMTR)

Note: This is SATELLITE DEBRIS
Your satellite tracking list
Your tracking list is empty




NASA's NSSDC Master Catalog

Two Line Element Set (TLE):
1  4724U 70091V   24110.00498022  .00026683  00000-0  42163-2 0  9990
2  4724  62.7778 345.3204 0517100  54.0212 310.7657 14.09932813647461
Source of the keplerian elements: AFSPC